Flag for U.S.A. Weather past 2 weeks in Irvine, California, U.S.A.

Now
62 °F

Overcast.


Feels Like: 62 °F
Forecast: 60 / 72 °F
Wind: No wind

Location: John Wayne Airport-Orange County Airport

Current Time: May 27, 2015 at 7:27:49 AM

Latest Report: May 27, 2015 at 6:53 AM


Visibility: 10 mi

Pressure: 29.98 "Hg

Humidity: 73%

Dew point: 53 °F

Location of IrvineLocation

Historic Weather in Irvine — Graph

°F

Irvine temperature yesterday

Maximum temperature yesterday: 70 °F (at 2:01 PM)
Minimum temperature yesterday: 61 °F (at 3:53 AM)
Average temperature yesterday: 64 °F

Past Weeks' High & Low Weather Summary

 TemperatureHumidityPressure
High70 °F (May 26, 2:01 PM)87% (May 15, 9:53 AM)30.09 "Hg (May 15, 9:53 AM)
Low54 °F (May 14, 3:53 PM)44% (May 21, 12:53 PM)29.83 "Hg (May 15, 3:53 PM)
Average62 °F68%29.97 "Hg
* Reported May 12 5:53 AM — May 27 5:53 AM, Irvine, Weather by CustomWeather, © 2015

Note: Actual official high and low records may vary slightly from our data, if they occured in-between our weather recording intervals... More about our weather records

Advertising

Irvine weather history for previous 24 hours

 ConditionsComfort  
Time TempWeatherWind HumidityBarometerVisibility
5:53 AM
Wed, May 27
61 °FOvercast.No wind78%29.97 "Hg10 mi
4:53 AM61 °FMostly cloudy.No wind78%29.97 "Hg10 mi
3:53 AM60 °FOvercast.3 mph83%29.98 "Hg10 mi
2:53 AM62 °FOvercast.No wind78%29.98 "Hg10 mi
1:53 AM62 °FOvercast.3 mph75%29.98 "Hg10 mi
12:53 AM63 °FOvercast.No wind73%29.98 "Hg10 mi
11:53 PM
Tue, May 26
62 °FOvercast.No wind75%29.99 "Hg10 mi
10:53 PM62 °FOvercast.3 mph75%29.99 "Hg10 mi
9:53 PM62 °FOvercast.No wind75%29.99 "Hg10 mi
8:53 PM62 °FPassing clouds.3 mph75%29.99 "Hg10 mi
7:53 PM62 °FBroken clouds.5 mph75%29.98 "Hg10 mi
6:53 PM63 °FBroken clouds.8 mph73%29.96 "Hg10 mi
5:53 PM65 °FBroken clouds.8 mph68%29.96 "Hg10 mi
4:53 PM67 °FPartly sunny.7 mph63%29.96 "Hg10 mi
3:53 PM68 °FScattered clouds.8 mph61%29.96 "Hg10 mi
2:53 PM68 °FScattered clouds.9 mph61%29.98 "Hg10 mi
2:01 PM70 °FBroken clouds.7 mph57%29.98 "Hg10 mi
12:53 PM68 °FPartly sunny.7 mph59%29.99 "Hg10 mi
11:53 AM67 °FOvercast.7 mph63%30.00 "Hg10 mi
10:53 AM64 °FOvercast.3 mph70%30.00 "Hg10 mi
9:53 AM64 °FOvercast.No wind68%29.99 "Hg10 mi
8:53 AM62 °FOvercast.No wind75%29.99 "Hg10 mi
7:53 AM62 °FMore clouds than sun.No wind75%30.00 "Hg10 mi
Weather by CustomWeather, © 2015

See weather overviewHow to use our weather pages